Wind_Speed
16 19 19 19 20 22 24 26 27 28 31 32 34 35 37 38 40 42 45 47 48 49 50 51 51 50 48 45 44 42 39 38 36 35 34 32 30 28 26 24 23 23 22 20
16 20 21 22 24 26 26 27 28 31 33 35 38 41 42 44 46 48 50 51 51 52 52 53 54 53 51 47 44 42 39 36 35 34 32 31 30 28 25 23 22 21 19 17
18 20 22 25 26 26 27 28 31 33 36 37 40 44 47 48 51 54 56 57 58 57 57 56 56 55 53 48 44 42 39 36 34 32 31 30 29 27 25 22 21 19 17 14
23 23 26 28 29 31 33 34 35 37 39 41 44 48 51 54 57 59 61 62 63 63 62 61 60 58 55 50 44 41 39 37 34 32 30 28 27 26 24 22 20 18 15 13
30 31 32 34 35 37 39 40 40 42 43 46 49 53 56 59 63 64 65 67 68 69 69 68 65 61 58 52 46 42 39 38 35 32 29 28 27 25 23 21 18 17 16 15
35 37 38 38 38 39 43 44 44 47 51 54 58 61 62 64 67 69 71 73 74 74 74 72 69 65 61 56 50 45 40 38 36 34 31 28 26 25 23 21 18 17 16 16
36 39 41 42 41 42 44 48 52 55 59 61 64 68 72 74 77 78 79 79 80 80 79 76 74 70 67 62 54 49 45 41 37 36 33 30 27 25 23 20 18 16 16 17
37 39 39 41 44 46 49 53 57 61 66 70 73 75 77 79 81 82 82 80 79 76 73 70 70 69 67 63 57 52 48 44 40 37 36 32 28 26 23 20 18 16 15 15
35 38 41 44 47 51 55 60 64 69 72 75 78 79 80 81 81 78 75 69 62 57 54 53 54 55 55 56 56 54 52 49 44 39 37 34 31 28 24 20 18 17 15 13
37 40 44 48 53 58 63 68 72 74 76 79 81 82 82 79 72 64 54 48 46 45 45 44 45 45 45 47 51 54 54 51 47 42 38 36 33 30 26 21 18 17 15 13
42 47 52 56 61 66 71 74 75 76 77 77 76 73 68 60 51 44 40 40 41 42 42 42 42 42 42 42 45 50 53 52 47 42 40 37 35 33 28 24 20 19 17 16
50 55 60 65 70 75 78 80 79 77 72 65 60 57 52 47 42 41 41 42 43 43 42 42 41 40 39 39 43 46 48 49 47 44 41 39 37 35 31 26 22 21 20 19
59 63 68 74 78 80 82 79 74 66 60 55 52 50 47 44 44 45 46 46 45 45 43 42 41 39 37 35 39 42 44 46 44 43 41 39 38 36 33 29 25 23 23 22
66 71 75 79 81 80 76 69 61 54 51 49 47 45 45 45 46 47 48 49 49 47 45 43 40 38 35 33 35 38 41 43 42 41 41 41 39 37 35 31 28 26 25 24
70 75 78 80 78 72 64 58 51 47 44 43 43 44 46 48 49 49 50 50 48 46 43 40 38 36 34 32 32 35 38 40 40 38 40 41 40 39 37 33 30 30 28 26
75 78 79 77 72 64 56 50 45 42 42 43 45 48 50 52 52 52 51 51 49 46 42 39 36 34 32 31 30 34 37 39 39 37 37 39 41 40 38 35 32 30 28 26
78 79 77 72 64 56 50 45 43 42 43 45 49 52 55 57 57 56 53 51 48 45 41 37 34 32 31 29 29 33 37 38 38 37 37 38 39 40 38 35 33 31 30 28
77 74 69 63 59 52 45 42 41 42 44 49 53 57 60 61 60 56 51 48 43 38 34 32 30 29 28 28 28 33 37 38 36 36 36 36 37 39 39 37 34 32 30 27
72 67 61 57 52 47 42 39 40 43 48 52 57 60 60 58 55 51 46 41 35 29 25 24 24 24 23 25 29 34 37 37 35 35 35 35 36 37 39 38 35 32 29 26
66 60 56 50 44 40 37 37 41 47 51 55 57 57 56 53 48 43 37 31 24 18 14 14 15 19 21 25 31 35 36 35 35 35 33 34 34 35 37 38 36 33 29 26
62 56 50 44 38 35 35 39 44 49 53 54 53 54 52 47 42 36 29 22 15 8 2 6 12 17 22 29 35 36 35 34 34 33 33 32 32 33 35 36 35 33 31 28
58 52 45 38 33 32 35 40 45 49 51 50 50 49 47 43 39 33 25 20 15 12 10 11 15 21 28 34 36 36 35 34 34 33 31 29 28 29 31 33 34 34 31 28
55 47 40 34 31 31 35 40 44 47 48 47 44 41 40 38 36 32 27 23 20 18 16 17 20 27 32 34 35 35 34 33 32 30 27 25 25 26 28 31 32 33 31 28
50 43 36 31 29 31 34 38 43 46 45 41 38 35 34 34 32 30 28 25 23 20 20 22 26 29 31 32 33 33 33 33 31 27 24 21 21 23 26 28 29 29 27 25
47 40 33 29 28 30 34 38 41 43 41 36 32 30 29 30 30 30 29 27 24 22 22 23 24 26 28 31 32 33 33 31 27 24 21 19 20 22 24 25 24 24 22 20
44 36 30 28 28 30 33 36 40 41 38 32 29 27 27 27 27 26 25 24 21 18 18 19 23 26 29 31 33 33 31 28 25 22 21 21 23 24 24 23 22 21 20 18
40 32 26 24 24 27 30 34 37 39 36 32 29 26 26 25 25 25 23 21 18 15 15 18 23 27 30 31 31 30 27 25 22 22 22 23 24 24 22 21 20 19 17 15
Wind_Direction
297 293 294 296 291 289 287 288 288 290 293 297 299 299 298 297 297 296 296 296 297 297 296 297 297 298 299 300 300 303 306 308 311 313 311 305 299 299 300 302 303 305 304 298
296 296 299 297 294 295 293 293 294 296 298 301 301 300 298 298 297 295 294 294 294 293 293 294 294 295 296 296 296 296 299 303 305 308 308 303 297 296 298 300 301 304 304 300
302 299 299 300 304 305 303 302 301 299 299 300 297 295 294 293 292 292 292 292 293 293 293 293 293 293 294 294 293 292 293 296 298 301 302 299 294 292 294 296 298 301 303 305
309 308 312 311 311 310 307 305 303 302 300 298 295 294 294 293 292 292 292 292 293 292 291 290 290 289 290 289 289 288 288 289 291 292 294 292 288 287 287 290 294 296 297 300
317 316 314 311 313 312 307 305 305 303 299 295 292 291 290 289 289 290 289 288 287 286 287 287 286 285 284 283 282 281 282 282 282 283 284 283 280 278 279 281 286 288 290 290
317 315 313 311 312 309 305 304 301 296 292 291 291 291 291 289 289 289 288 288 287 286 286 285 284 282 280 278 275 272 272 273 274 274 274 273 270 267 267 271 275 277 282 283
312 310 307 309 306 302 297 295 295 295 296 296 296 295 295 294 293 292 292 291 290 289 287 285 282 279 275 273 269 264 262 263 264 265 264 261 258 255 256 260 265 268 272 275
306 304 302 302 299 299 299 300 299 299 298 297 297 297 296 295 295 294 294 294 293 291 289 287 283 279 273 267 262 256 252 251 253 255 253 250 246 243 245 250 256 260 263 267
307 306 305 305 305 305 304 303 301 300 300 299 299 298 297 297 298 297 296 295 295 294 294 293 290 283 273 263 254 246 243 243 244 246 246 242 237 234 236 242 248 251 251 252
310 310 309 309 308 308 307 306 305 304 303 300 298 298 298 298 297 295 294 295 296 297 299 298 298 291 278 263 249 240 236 235 236 238 239 236 230 227 228 233 239 240 236 228
314 314 314 313 313 313 312 310 307 304 302 301 300 300 299 298 294 291 291 294 297 297 297 298 298 296 284 265 247 239 235 232 231 231 232 230 225 220 221 225 229 228 220 211
320 320 319 318 318 316 314 312 311 310 310 309 308 307 306 302 298 296 296 297 297 295 294 293 293 294 290 271 249 240 234 230 228 228 227 224 220 216 215 219 222 218 212 207
325 324 322 321 319 317 315 314 315 315 315 314 313 311 309 306 303 302 301 299 297 294 292 289 287 288 288 276 254 240 229 224 222 222 220 218 215 211 210 212 212 208 205 206
328 325 323 321 319 318 318 318 319 319 317 315 314 312 310 308 306 303 301 299 296 293 289 286 282 281 281 273 256 240 227 222 219 216 214 212 210 207 205 206 204 200 201 205
328 325 323 322 320 321 322 321 321 320 319 319 319 318 316 314 312 308 305 301 297 293 288 283 278 275 273 268 253 235 224 219 215 213 210 208 206 203 201 201 200 197 199 202
329 326 324 323 324 325 325 324 324 325 326 326 326 325 323 320 316 312 308 303 298 292 286 280 274 269 264 261 247 229 219 215 212 210 208 205 204 201 199 199 198 197 198 201
329 328 326 326 327 328 327 327 328 329 330 329 329 327 324 321 318 313 309 304 299 293 285 276 268 261 255 250 237 221 212 210 208 207 204 202 201 200 197 197 198 198 200 204
330 329 328 329 329 329 328 329 331 333 332 331 330 328 325 322 319 314 310 305 300 293 282 270 260 251 244 235 224 211 204 203 202 201 199 199 199 199 195 196 198 199 202 206
331 329 329 329 329 329 330 333 336 336 335 334 332 330 329 326 323 320 315 310 305 296 279 263 249 235 226 218 207 198 195 196 197 195 194 195 197 198 196 196 198 200 201 204
331 330 329 330 330 331 334 338 340 339 338 337 335 335 335 333 332 331 328 323 316 303 278 250 227 213 205 196 187 183 185 188 190 190 191 191 195 198 197 197 199 202 204 206
332 332 332 333 334 337 340 342 342 342 341 341 341 341 342 344 344 344 344 345 344 338 289 188 179 177 174 171 170 173 177 181 183 185 185 187 194 198 198 199 202 205 209 211
335 335 335 336 339 343 345 345 345 346 345 346 346 348 351 356 360 3 11 23 37 55 82 115 139 150 153 157 162 166 170 174 178 180 182 186 190 194 196 199 203 206 211 214
337 338 338 339 343 346 348 348 349 350 350 351 352 357 3 8 13 22 31 41 50 63 81 103 126 138 145 151 157 162 165 169 172 174 178 183 189 194 197 199 202 205 210 215
340 341 340 342 344 346 348 351 353 354 354 355 358 3 9 15 24 34 42 50 59 73 91 109 124 134 141 148 153 156 159 162 165 169 174 180 186 189 191 193 195 198 203 208
342 341 341 342 345 347 350 352 355 357 358 360 2 8 15 24 32 39 45 52 60 75 93 109 122 131 137 142 145 148 151 156 160 164 167 170 171 171 171 174 176 182 190 196
342 342 341 343 345 347 349 352 355 358 0 3 5 10 18 25 32 37 42 49 60 75 93 111 124 131 135 138 142 146 150 154 156 159 160 162 162 161 162 165 170 176 182 188
342 340 338 340 342 345 349 353 357 359 1 3 6 11 16 24 31 36 40 45 56 73 96 115 126 133 136 139 143 148 151 154 157 160 162 163 163 162 162 164 168 172 177 182
Height
5848 5845 5843 5841 5838 5836 5832 5829 5826 5823 5819 5817 5813 5809 5805 5802 5797 5793 5788 5783 5778 5772 5767 5762 5758 5755 5752 5749 5745 5741 5737 5732 5728 5723 5719 5714 5711 5707 5704 5701 5698 5695 5692 5689
5845 5841 5839 5836 5833 5830 5827 5823 5819 5816 5812 5809 5804 5798 5794 5790 5785 5780 5775 5769 5765 5760 5755 5750 5745 5741 5739 5736 5733 5730 5727 5723 5719 5715 5711 5708 5705 5702 5699 5696 5693 5691 5688 5686
5841 5838 5834 5831 5828 5824 5820 5816 5812 5808 5805 5799 5793 5786 5782 5777 5772 5766 5760 5755 5750 5745 5740 5735 5731 5727 5725 5723 5721 5718 5715 5713 5710 5707 5704 5701 5698 5695 5693 5691 5688 5686 5684 5682
5835 5832 5828 5825 5820 5816 5811 5807 5802 5797 5792 5787 5781 5773 5767 5761 5755 5749 5743 5737 5732 5727 5723 5719 5715 5712 5710 5709 5707 5706 5704 5701 5699 5697 5695 5693 5691 5689 5687 5685 5683 5682 5680 5679
5826 5823 5820 5816 5811 5805 5799 5795 5791 5785 5779 5773 5766 5760 5753 5746 5738 5731 5725 5719 5713 5708 5703 5700 5696 5694 5693 5693 5693 5692 5691 5690 5688 5687 5685 5684 5683 5682 5680 5679 5678 5677 5676 5676
5819 5814 5810 5808 5803 5795 5789 5782 5778 5771 5764 5756 5749 5742 5737 5729 5721 5714 5707 5699 5693 5687 5682 5678 5675 5673 5673 5675 5676 5677 5677 5677 5676 5676 5675 5674 5674 5674 5674 5673 5672 5671 5671 5672
5811 5806 5800 5795 5790 5785 5779 5772 5763 5755 5747 5738 5730 5721 5713 5705 5696 5688 5681 5674 5667 5661 5656 5651 5648 5647 5649 5652 5655 5658 5660 5662 5663 5664 5664 5664 5665 5666 5666 5666 5665 5665 5666 5667
5803 5797 5793 5786 5778 5772 5765 5757 5748 5739 5729 5719 5710 5700 5690 5680 5671 5663 5654 5647 5639 5633 5628 5622 5617 5616 5618 5623 5630 5636 5641 5644 5648 5650 5651 5652 5654 5657 5658 5659 5659 5659 5660 5662
5794 5789 5781 5774 5766 5758 5750 5741 5731 5720 5709 5697 5686 5676 5666 5656 5647 5638 5629 5622 5615 5609 5604 5599 5593 5590 5591 5596 5602 5610 5618 5624 5629 5634 5637 5640 5643 5647 5650 5651 5652 5653 5654 5656
5783 5777 5770 5763 5754 5744 5733 5722 5710 5697 5685 5673 5661 5651 5641 5632 5623 5615 5609 5602 5597 5592 5587 5582 5576 5571 5570 5572 5577 5585 5594 5603 5610 5617 5623 5627 5631 5637 5641 5644 5645 5646 5648 5651
5775 5767 5759 5749 5738 5726 5714 5700 5688 5676 5664 5650 5637 5627 5617 5609 5603 5597 5593 5589 5583 5578 5573 5568 5562 5557 5553 5553 5557 5564 5573 5583 5591 5600 5608 5614 5620 5626 5632 5636 5638 5640 5642 5645
5765 5754 5744 5732 5719 5705 5691 5678 5664 5651 5638 5627 5614 5603 5596 5590 5586 5582 5578 5574 5569 5563 5558 5553 5548 5544 5540 5538 5541 5546 5555 5565 5575 5585 5594 5601 5608 5615 5622 5627 5631 5634 5637 5640
5750 5738 5726 5713 5699 5683 5668 5654 5641 5628 5616 5606 5598 5589 5582 5576 5571 5567 5562 5557 5552 5547 5542 5538 5534 5531 5528 5526 5527 5532 5540 5550 5560 5570 5580 5589 5597 5605 5612 5619 5623 5627 5631 5635
5735 5722 5709 5694 5678 5662 5647 5634 5623 5613 5603 5594 5586 5578 5571 5564 5558 5551 5545 5539 5534 5529 5525 5521 5518 5517 5516 5515 5516 5520 5528 5537 5548 5557 5568 5578 5586 5595 5603 5610 5615 5620 5625 5629
5721 5706 5690 5674 5659 5644 5630 5618 5608 5600 5591 5583 5575 5567 5558 5550 5543 5535 5527 5520 5514 5510 5507 5504 5503 5503 5502 5503 5505 5510 5518 5527 5538 5547 5557 5567 5577 5585 5594 5602 5608 5613 5618 5623
5705 5689 5672 5656 5641 5628 5616 5605 5596 5587 5580 5571 5563 5554 5545 5535 5526 5517 5509 5501 5495 5491 5488 5486 5486 5487 5489 5491 5494 5501 5509 5519 5529 5538 5548 5558 5568 5577 5586 5595 5602 5607 5613 5618
5687 5671 5654 5639 5627 5616 5605 5595 5586 5578 5570 5561 5552 5542 5531 5520 5509 5499 5490 5481 5474 5470 5469 5468 5470 5472 5475 5479 5484 5491 5501 5511 5522 5532 5541 5551 5560 5570 5579 5589 5596 5602 5607 5613
5669 5652 5638 5625 5614 5605 5596 5588 5579 5571 5562 5552 5541 5529 5516 5502 5490 5479 5469 5461 5455 5451 5449 5450 5453 5457 5462 5468 5474 5483 5494 5506 5516 5526 5536 5546 5555 5564 5574 5583 5590 5596 5602 5607
5657 5642 5629 5619 5608 5598 5590 5582 5574 5565 5554 5542 5530 5516 5501 5486 5472 5460 5450 5443 5437 5434 5433 5435 5438 5444 5451 5458 5467 5478 5490 5502 5513 5523 5533 5542 5551 5560 5569 5577 5585 5591 5597 5602
5647 5634 5622 5612 5603 5594 5585 5577 5568 5558 5547 5534 5520 5505 5490 5475 5461 5449 5438 5431 5426 5423 5423 5425 5430 5437 5444 5453 5463 5476 5488 5500 5511 5521 5530 5540 5549 5557 5565 5573 5580 5586 5592 5598
5638 5626 5615 5605 5597 5589 5581 5573 5563 5553 5541 5527 5513 5498 5483 5468 5455 5443 5434 5428 5424 5421 5421 5423 5428 5435 5442 5452 5464 5477 5489 5500 5511 5521 5530 5539 5547 5554 5562 5569 5576 5582 5587 5593
5629 5618 5609 5599 5592 5585 5578 5569 5560 5549 5536 5523 5510 5496 5482 5468 5456 5445 5437 5432 5428 5426 5427 5429 5433 5439 5447 5457 5469 5480 5491 5502 5512 5522 5530 5538 5545 5552 5559 5565 5572 5577 5583 5588
5622 5612 5603 5595 5589 5582 5575 5567 5558 5547 5534 5522 5510 5498 5486 5474 5463 5454 5447 5442 5439 5438 5437 5439 5442 5448 5455 5465 5475 5485 5495 5505 5515 5523 5531 5537 5543 5549 5555 5561 5567 5574 5579 5585
5617 5608 5599 5592 5586 5581 5574 5566 5556 5546 5535 5524 5513 5503 5492 5483 5474 5466 5459 5455 5452 5450 5450 5451 5454 5459 5466 5474 5482 5491 5500 5509 5518 5525 5531 5537 5542 5547 5552 5558 5564 5571 5577 5582
5612 5604 5597 5590 5585 5578 5572 5564 5556 5547 5537 5527 5517 5508 5500 5492 5485 5479 5474 5470 5467 5465 5465 5466 5468 5472 5477 5483 5490 5498 5506 5514 5521 5527 5532 5537 5542 5547 5553 5558 5564 5570 5575 5580
5609 5601 5594 5588 5582 5577 5570 5563 5555 5546 5537 5529 5521 5514 5507 5500 5494 5489 5485 5482 5479 5478 5478 5478 5480 5482 5486 5491 5498 5505 5512 5519 5525 5530 5535 5540 5545 5550 5555 5560 5565 5570 5574 5578
5606 5599 5593 5589 5583 5577 5571 5564 5556 5547 5539 5531 5525 5519 5513 5508 5503 5498 5494 5491 5488 5487 5486 5487 5488 5491 5495 5500 5507 5513 5519 5524 5529 5533 5538 5543 5548 5553 5557 5562 5566 5570 5575 5578